When you browse on this site, cookies collect data to enhance your experience and personalize the content and advertising you see.
Visit our Privacy Policy to learn more. By continuing to use the site, you agree to this use of cookies and data.
  • In Romania
  • List of Countries
  • For 7 days
  • Water Temperature
  • Weather Map
  • Weather Widgets
  • user-avatar
    Login

    Hourly Weather Lubango

    Today, 22 November, Friday

    Time Temperature Precipitation Wind Pressure Humidity
    00:00 +16°C° 0 mm 1 mps 607 mmHg 53%
    01:00 +16°C° 0 mm 1 mps 607 mmHg 53%
    02:00 +16°C° 0 mm 1 mps 607 mmHg 52%
    03:00 +16°C° 0 mm 1 mps 607 mmHg 50%
    04:00 +16°C° 0 mm 1 mps 607 mmHg 48%
    05:00 +16°C° 0 mm 0 mps 607 mmHg 48%
    06:00 +16°C° 0 mm 0 mps 608 mmHg 48%
    07:00 +17°C° 0 mm 0 mps 609 mmHg 47%
    08:00 +18°C° 0 mm 0 mps 610 mmHg 42%
    09:00 +20°C° 0 mm 0 mps 611 mmHg 37%
    10:00 +24°C° 0 mm 1 mps 611 mmHg 32%
    11:00 +25°C° 0 mm 1 mps 611 mmHg 31%
    12:00 +27°C° 0 mm 1 mps 611 mmHg 29%
    13:00 +28°C° 0 mm 2 mps 611 mmHg 27%
    14:00 +27°C° 0 mm 2 mps 610 mmHg 29%
    15:00 +26°C° 0 mm 3 mps 609 mmHg 31%
    16:00 +25°C° 0 mm 4 mps 609 mmHg 33%
    17:00 +22°C° 0 mm 3 mps 608 mmHg 39%
    18:00 +20°C° 0 mm 2 mps 608 mmHg 44%
    19:00 +18°C° 0 mm 2 mps 608 mmHg 50%
    20:00 +17°C° 0 mm 2 mps 608 mmHg 53%
    21:00 +16°C° 0 mm 1 mps 608 mmHg 56%
    22:00 +16°C° 0 mm 1 mps 608 mmHg 60%
    23:00 +16°C° 0 mm 1 mps 608 mmHg 58%

    Tomorrow, 23 November, Saturday

    Time Temperature Precipitation Wind Pressure Humidity
    00:00 +16°C° 0 mm 1 mps 608 mmHg 56%
    01:00 +16°C° 0 mm 1 mps 608 mmHg 53%
    02:00 +15°C° 0 mm 1 mps 607 mmHg 51%
    03:00 +15°C° 0 mm 1 mps 607 mmHg 50%
    04:00 +15°C° 0 mm 1 mps 607 mmHg 48%
    05:00 +16°C° 0 mm 1 mps 608 mmHg 46%
    06:00 +18°C° 0 mm 1 mps 609 mmHg 44%
    07:00 +19°C° 0 mm 1 mps 610 mmHg 42%
    08:00 +22°C° 0 mm 1 mps 610 mmHg 38%
    09:00 +24°C° 0 mm 1 mps 611 mmHg 33%
    10:00 +26°C° 0 mm 2 mps 611 mmHg 28%
    11:00 +27°C° 0 mm 2 mps 611 mmHg 27%
    12:00 +28°C° 0 mm 2 mps 611 mmHg 25%
    13:00 +29°C° 0 mm 2 mps 611 mmHg 23%
    14:00 +29°C° 0 mm 2 mps 610 mmHg 24%
    15:00 +28°C° 0 mm 3 mps 610 mmHg 25%
    16:00 +28°C° 0 mm 3 mps 609 mmHg 26%
    17:00 +25°C° 0 mm 3 mps 608 mmHg 34%
    18:00 +23°C° 0 mm 2 mps 608 mmHg 41%
    19:00 +19°C° 0 mm 2 mps 607 mmHg 49%
    20:00 +18°C° 0 mm 2 mps 607 mmHg 50%
    21:00 +19°C° 0 mm 1 mps 608 mmHg 51%
    22:00 +18°C° 0 mm 1 mps 608 mmHg 52%
    23:00 +18°C° 0 mm 1 mps 608 mmHg 52%

    Day after tomorrow, 24 November, Sunday

    Time Temperature Precipitation Wind Pressure Humidity
    00:00 +18°C° 0 mm 1 mps 608 mmHg 52%
    01:00 +16°C° 0 mm 1 mps 607 mmHg 52%
    02:00 +16°C° 0 mm 1 mps 607 mmHg 50%
    03:00 +16°C° 0 mm 1 mps 607 mmHg 48%
    04:00 +16°C° 0 mm 1 mps 607 mmHg 46%
    05:00 +18°C° 0 mm 1 mps 608 mmHg 44%
    06:00 +19°C° 0 mm 1 mps 608 mmHg 43%
    07:00 +21°C° 0 mm 1 mps 609 mmHg 41%
    08:00 +23°C° 0 mm 2 mps 610 mmHg 37%
    09:00 +25°C° 0 mm 2 mps 611 mmHg 32%
    10:00 +28°C° 0 mm 3 mps 611 mmHg 27%
    11:00 +29°C° 0 mm 3 mps 611 mmHg 26%
    12:00 +30°C° 0 mm 3 mps 611 mmHg 25%
    13:00 +30°C° 0 mm 3 mps 610 mmHg 24%
    14:00 +29°C° 0 mm 3 mps 609 mmHg 27%
    15:00 +28°C° 0 mm 3 mps 608 mmHg 30%
    16:00 +27°C° 0 mm 3 mps 607 mmHg 33%
    17:00 +24°C° 0 mm 3 mps 607 mmHg 40%
    18:00 +21°C° 0 mm 2 mps 607 mmHg 47%
    19:00 +20°C° 0 mm 1 mps 606 mmHg 53%
    20:00 +19°C° 0 mm 1 mps 607 mmHg 54%
    21:00 +19°C° 0 mm 1 mps 608 mmHg 55%
    22:00 +19°C° 0 mm 1 mps 608 mmHg 55%
    23:00 +19°C° 0 mm 1 mps 608 mmHg 55%

    25 November, Monday

    Time Temperature Precipitation Wind Pressure Humidity
    00:00 +18°C° 0 mm 1 mps 607 mmHg 54%
    01:00 +18°C° 0 mm 1 mps 607 mmHg 54%
    02:00 +18°C° 0 mm 1 mps 607 mmHg 55%
    03:00 +15°C° 0 mm 0 mps 607 mmHg 55%
    04:00 +15°C° 0 mm 0 mps 606 mmHg 56%
    05:00 +16°C° 0 mm 0 mps 607 mmHg 54%
    06:00 +19°C° 0 mm 1 mps 608 mmHg 52%
    07:00 +20°C° 0 mm 1 mps 608 mmHg 50%
    08:00 +22°C° 0 mm 1 mps 609 mmHg 44%
    09:00 +25°C° 0 mm 1 mps 610 mmHg 39%
    10:00 +27°C° 0 mm 2 mps 611 mmHg 33%
    11:00 +28°C° 0 mm 2 mps 611 mmHg 33%
    12:00 +28°C° 0 mm 2 mps 610 mmHg 32%
    13:00 +29°C° 0 mm 2 mps 610 mmHg 31%
    14:00 +28°C° 0 mm 2 mps 609 mmHg 36%
    15:00 +26°C° 0 mm 2 mps 608 mmHg 41%
    16:00 +24°C° 0 mm 2 mps 607 mmHg 46%
    17:00 +23°C° 0 mm 2 mps 607 mmHg 54%
    18:00 +20°C° 0 mm 2 mps 607 mmHg 61%
    19:00 +18°C° 0 mm 2 mps 607 mmHg 69%
    20:00 +19°C° 0 mm 1 mps 607 mmHg 71%
    21:00 +18°C° 0 mm 1 mps 608 mmHg 73%
    22:00 +16°C° 0 mm 0 mps 608 mmHg 76%
    23:00 +15°C° 0 mm 0 mps 607 mmHg 76%

    26 November, Tuesday

    Time Temperature Precipitation Wind Pressure Humidity
    00:00 +15°C° 0 mm 0 mps 607 mmHg 77%
    01:00 +15°C° 0 mm 0 mps 607 mmHg 78%
    02:00 +15°C° 0 mm 0 mps 606 mmHg 78%
    03:00 +14°C° 0 mm 0 mps 606 mmHg 77%
    04:00 +15°C° 0 mm 1 mps 606 mmHg 77%
    05:00 +18°C° 0 mm 1 mps 607 mmHg 71%
    06:00 +19°C° 0 mm 1 mps 607 mmHg 66%
    07:00 +20°C° 0 mm 1 mps 608 mmHg 61%
    08:00 +22°C° 0 mm 1 mps 609 mmHg 55%
    09:00 +24°C° 0 mm 2 mps 610 mmHg 49%
    10:00 +26°C° 0 mm 3 mps 610 mmHg 42%
    11:00 +25°C° 0 mm 3 mps 609 mmHg 46%
    12:00 +25°C° 0 mm 2 mps 608 mmHg 49%
    13:00 +24°C° 0 mm 2 mps 607 mmHg 53%
    14:00 +23°C° 0.5 mm 2 mps 607 mmHg 59%
    15:00 +21°C° 0.5 mm 2 mps 606 mmHg 64%
    16:00 +20°C° 0.5 mm 2 mps 606 mmHg 70%
    17:00 +19°C° 2 mm 2 mps 606 mmHg 77%
    18:00 +19°C° 2 mm 1 mps 606 mmHg 84%
    19:00 +18°C° 2 mm 1 mps 607 mmHg 90%
    20:00 +16°C° 0 mm 1 mps 607 mmHg 91%
    21:00 +15°C° 0 mm 0 mps 607 mmHg 92%
    22:00 +15°C° 0 mm 0 mps 607 mmHg 93%
    23:00 +15°C° 0 mm 0 mps 607 mmHg 94%

    27 November, Wednesday

    Time Temperature Precipitation Wind Pressure Humidity
    00:00 +15°C° 0 mm 0 mps 607 mmHg 94%
    01:00 +14°C° 0 mm 0 mps 606 mmHg 94%
    02:00 +14°C° 0 mm 0 mps 606 mmHg 95%
    03:00 +14°C° 0 mm 0 mps 606 mmHg 95%
    04:00 +14°C° 0 mm 0 mps 606 mmHg 95%
    05:00 +16°C° 0.1 mm 1 mps 606 mmHg 92%
    06:00 +16°C° 0.1 mm 1 mps 607 mmHg 89%
    07:00 +18°C° 0.1 mm 1 mps 607 mmHg 85%
    08:00 +19°C° 0.3 mm 1 mps 608 mmHg 80%
    09:00 +21°C° 0.3 mm 1 mps 608 mmHg 74%
    10:00 +22°C° 0.3 mm 1 mps 609 mmHg 69%
    11:00 +21°C° 1.3 mm 2 mps 608 mmHg 67%
    12:00 +23°C° 1.3 mm 2 mps 608 mmHg 65%
    13:00 +23°C° 1.3 mm 2 mps 608 mmHg 63%
    14:00 +23°C° 1.1 mm 2 mps 607 mmHg 64%
    15:00 +22°C° 1.1 mm 3 mps 607 mmHg 66%
    16:00 +21°C° 1.1 mm 3 mps 606 mmHg 68%
    17:00 +20°C° 0.4 mm 2 mps 606 mmHg 75%
    18:00 +18°C° 0.4 mm 2 mps 606 mmHg 82%
    19:00 +18°C° 0.4 mm 1 mps 606 mmHg 89%
    20:00 +18°C° 0.2 mm 1 mps 607 mmHg 90%
    21:00 +18°C° 0.2 mm 1 mps 607 mmHg 91%
    22:00 +16°C° 0.2 mm 1 mps 608 mmHg 92%
    23:00 +16°C° 0 mm 1 mps 607 mmHg 93%
    Show more